ロニオス彗星

C/2002 R3 ( LONEOS )

English version
Home page
Updated on June 5, 2004

---------------------------------------------------------------------

・ プロフィール

発見日 2002年9月4日
発見光度 18.2等
発見者 Lowell Observatory Near-Earth Object Search

・ 写真集

・ 軌道要素

Epoch 2003 June 10.0 TT = JDT 2452800.5
T 2003 June 13.45260 TT                                 MPC
q   3.8695969            (2000.0)            P               Q
z  -0.0007428      Peri.   45.06480     +0.95604162     +0.12949440
 +/-0.0000166      Node    54.29665     +0.07640599     -0.97622382
e   1.0028744      Incl.  161.09615     +0.28310166     -0.17383401
>From 584 observations 2002 Sept. 4-2003 Jan. 5, mean residual 0".54.

・ 星図

・ 光度変化

        m1 = 4.3 + 5 logΔ + 15.0 log r

---------------------------------------------------------------------

軌道要素はM.P.E.C. 2003-A31に掲載されたものです。
星図は StellaNavigator Ver.2.0 for Windows (アストロアーツ 編著 / アスキー出版局刊) で作成したものです。
光度グラフはComet for Windowsで作成したものです。

---------------------------------------------------------------------

Copyright(C) Seiichi Yoshida (comet@aerith.net). All rights reserved.